Back to catalog

BEIDOU 3M3

AliveNavigationMEO
NORAD 43107·PAYLOAD·🇨🇳 China

Launched Jan 11, 2018 from Xichang Satellite Launch Center

Loading…

Next Passes (next 24 hours)

TLE

FreshSource: Space-Track

Epoch: Sep 14, 2026, 11:39 UTC

1 43107U 18003A   26257.48594796 -.00000062  00000-0  00000+0 0  9999
2 43107  54.2451 299.1939 0003211 105.0661 255.0288  1.86227952 59013

Track BEIDOU 3M3 in real time with AllMySat

Download on the App Store